Find Starlink 35067

NORAD ID: 65527 Int'l Des: 2025-200 Owner: SPXS Country: US Constellation: starlink operational
LEOCIRCULARRETROGRADESSO

Current View

Loading 3D Globe...

About Starlink 35067

Description loading...

Upcoming Passes

Passes for default location (London). Set your location on the main map for personalized predictions.

Altitude History

Loading altitude history...

Two-Line Element Set

1 65527U 25200H 26146.15078714 .00003452 00000-0 24315-3 0 9998
2 65527 97.4471 215.7180 0002022 148.4805 211.6543 15.05656687 40789
Epoch: May 26, 2026 • Age: 15 hours

Current Status

Altitude 553.4 km
Velocity 7.58 km/s
Sub-Earth Point -9.97°S, 131.55°W
Launch Date Sep 6, 2025
Age 0.7 years
Type internet

Technical Details

Classification Payload
Mass 575.00 kg
Dry Mass 530.00 kg
Total Mass 575.00 kg
Length 0.30 m
Diameter 4.10 m
Span 29.00 m
Shape Box + pan
Manufacturer SPXS
Bus Type Starlink V2MO
Phase Status In Orbit
Owner/State SPXS/US

Most Searched